STARLINK-11432, 62882

Orbit data source: Space-Track

STARLINK-11432, 62882 is a payload satellite owned by SpaceX/Seattle (US) in LEO that was launched on Tue, 04 Feb 2025 UTC via an FALCON 9 launch vehicle from the Air Force Eastern Test Range (AFETR). Payload-class satellites include a variety of spacecraft equipped with specific instruments for various scientific and technological missions. These include communications satellites like Starlink; space stations such as the ISS; scientific satellites like the Hubble; Earth observation satellites from companies like Planet Labs, Umbra, and HawkEye 360; GPS; miniature CubeSats for education and research; and military/defense satellites.

Loading next visibility...
Identifier
62882, 2025-024D
Orbit
LEO
Country
Flag of USUS
Related business
Manufacturer
SpaceX/Seattle
Mission
Operational Commercial Communications
Bus & Motor
STARLINK V2MD, Unknown motor
Mass
960 kg wet, ~910 kg dry
Launch date (UTC)
2025-02-04 (1 year ago)
Launch vehicle
FALCON 9
Launch site
Air Force Eastern Test Range (AFETR)
Object type
Payload
Rocket body
Debris
Shape & HBR
Box + 2 Pan, 18.1 m
Radar Cross Section
36.964 m², Large (>1 m²)

Expand to show TLE details & history
Last TLE update: 23 hours ago

TLE from 23 hours ago
0 STARLINK-11432
1 62882U 25024D   26129.53558917  .00152734  00000-0  11734-2 0  9992
2 62882  43.0008 174.9168 0001499 264.3736  95.6960 15.70813296 73033
Epoch: 2026-05-09T12:51Z
TLE epoch observation values (Epoch: 2026-05-09T12:51:14.904Z)
Latitude
-0.00006°
Longitude
114.75301°
Altitude
356.443 km
Speed
7.697 km/s
True Right ascension
11h 39m 40s
True Declination
0° 00' 00"
Sunlit
Object was in full shadow at epoch
Visualization orbit readout
Latitude
Unknown
Longitude
Unknown
Altitude
Unknown
Speed
Unknown
Apparent Right ascension
Unknown
Apparent Declination
Unknown
Sunlit
N/A
Visualization observer readout
Local Sidereal Time
20:25:20
Azimuth
Unknown
Elevation
Unknown
Doppler factor
Unknown
Orbital elements
Apogee altitude
359.563 km
Perigee altitude
357.543 km
Semi-major axis
6,736.69 km
Eccentricity
0.00015
Inclination
43.0008°
RAAN
174.9168°
Arg. of periapsis
264.3736°
True anomaly
95.71309°
Mean anomaly
95.696°
Eccentric anomaly
95.70455°
Mean motion
3.9253 °/min
Orbital period
91.71 mins
BSTAR
0.0011734
Loading maneuver chart data...
Computing Atmospheric mass density...
Loading historical data...
Loading historical data...
Loading historical data...
Loading historical data...
Loading historical data...
Loading historical data...
Loading historical data...

Documentation

Showing up to 5 results
|